Back to catalog

STARLINK-38198

AliveCommunicationsSSO
NORAD 100160·PAYLOAD·🇺🇸 United States

Launched Jul 25, 2026 from Vandenberg Space Force Base

Loading…

Next Passes (next 24 hours)

TLE

FreshSource: Space-Track

Epoch: Sep 14, 2026, 14:59 UTC

1 A0160U 26171N   26257.62433329  .00001891  00000-0  60837-4 0  9995
2 A0160  97.2839 290.1205 0002149  93.7174 266.4314 15.33462755  7995

Track STARLINK-38198 in real time with AllMySat

Download on the App Store